Torna al catalogo

STARLINK-3198

AttivoComunicazioniVLEO
NORAD 49763·PAYLOAD·🇺🇸 United States

Lanciato Dec 2, 2021 da Cape Canaveral Space Force Station

Loading…

Prossimi Passaggi (prossime 24 ore)

TLE

AggiornatoSource: CelesTrak SupGP

Epoca: Sep 14, 2026, 20:02 UTC

1 49763C 21115AR  26257.83520833  .00000556  00000+0  17897-4 0  2571
2 49763  53.1588   0.1462 0001346  73.4537 115.3190 15.31699182    13

Traccia STARLINK-3198 in tempo reale con AllMySat

Download on the App Store